Terminal Aerodrome Forecast
Issued by NWS

Current Version | Previous Version | Graphics & Text | Print | Product List | Glossary On
Versions: 1 2 3 4 5 6 7 8 9 10 11 12 13 14 15 16 17 18 19 20 21 22
000
FTUS41 KPBZ 250120 AAA
TAFMGW
TAF AMD
KMGW 250120Z 2501/2524 17008G16KT P6SM BKN250
     FM250600 18008KT P6SM BKN060 WS020/20045KT
     FM251200 18012G23KT 3SM -SHRA VCTS OVC050CB
     FM251700 22016G29KT P6SM OVC025=

USA.gov is the U.S. government's official web portal to all federal, state and local government web resources and services.